TimeEDT,TemperatureF,Dew PointF,Humidity,Sea Level PressureIn,VisibilityMPH,Wind Direction,Wind SpeedMPH,Gust SpeedMPH,PrecipitationIn,Events,Conditions,WindDirDegrees,DateUTC
12:52 AM,48.9,48.0,97,29.91,10.0,Calm,Calm,-,N/A,,Overcast,0,2011-10-25 04:52:00
1:52 AM,52.0,50.0,93,29.91,10.0,West,5.8,-,0.00,Rain,Light Rain,270,2011-10-25 05:52:00
2:52 AM,51.1,50.0,96,29.89,10.0,West,4.6,-,0.00,,Overcast,270,2011-10-25 06:52:00
3:52 AM,51.1,48.9,92,29.89,10.0,WSW,3.5,-,0.00,,Overcast,250,2011-10-25 07:52:00
4:52 AM,50.0,48.0,93,29.89,10.0,Variable,3.5,-,N/A,,Overcast,0,2011-10-25 08:52:00
5:52 AM,46.9,45.0,93,29.89,9.0,WNW,3.5,-,N/A,,Clear,290,2011-10-25 09:52:00
6:52 AM,46.0,44.1,93,29.89,10.0,West,5.8,-,N/A,,Clear,280,2011-10-25 10:52:00
7:52 AM,46.9,44.1,90,29.91,10.0,WNW,3.5,-,N/A,,Clear,290,2011-10-25 11:52:00
8:52 AM,51.1,44.1,77,29.92,10.0,West,9.2,-,N/A,,Clear,260,2011-10-25 12:52:00
9:52 AM,54.0,42.1,64,29.91,10.0,West,8.1,-,N/A,,Clear,280,2011-10-25 13:52:00
10:52 AM,55.9,39.9,55,29.91,10.0,WNW,15.0,20.7,N/A,,Clear,290,2011-10-25 14:52:00
11:52 AM,57.9,37.9,47,29.88,10.0,WNW,12.7,20.7,N/A,,Partly Cloudy,300,2011-10-25 15:52:00
12:52 PM,57.9,37.0,46,29.86,10.0,WNW,16.1,25.3,N/A,,Scattered Clouds,290,2011-10-25 16:52:00
1:52 PM,59.0,35.1,41,29.86,10.0,West,21.9,31.1,N/A,,Partly Cloudy,280,2011-10-25 17:52:00
2:52 PM,60.1,34.0,38,29.85,10.0,WNW,9.2,21.9,N/A,,Clear,300,2011-10-25 18:52:00
3:52 PM,59.0,33.1,38,29.86,10.0,NW,9.2,24.2,N/A,,Clear,310,2011-10-25 19:52:00
5:52 PM,55.0,32.0,42,29.89,10.0,WNW,11.5,20.7,N/A,,Clear,290,2011-10-25 21:52:00
6:52 PM,53.1,32.0,45,29.93,10.0,West,6.9,-,N/A,,Clear,280,2011-10-25 22:52:00
7:52 PM,50.0,34.0,54,29.94,10.0,West,8.1,-,N/A,,Clear,270,2011-10-25 23:52:00
8:52 PM,48.0,34.0,58,29.95,10.0,West,5.8,-,N/A,,Clear,270,2011-10-26 00:52:00
9:52 PM,46.9,35.1,63,29.96,10.0,West,6.9,-,N/A,,Clear,280,2011-10-26 01:52:00
10:52 PM,45.0,35.1,68,29.96,10.0,West,4.6,-,N/A,,Clear,280,2011-10-26 02:52:00
11:52 PM,42.1,35.1,76,29.97,10.0,West,4.6,-,N/A,,Clear,280,2011-10-26 03:52:00